Time,TemperatureF,DewpointF,PressureIn,WindDirection,WindDirectionDegrees,WindSpeedMPH,WindSpeedGustMPH,Humidity,HourlyPrecipIn,Conditions,Clouds,dailyrainin,SoftwareType,DateUTC
2013-04-13 00:04:00,47.0,43.0,29.78,West,267,4.0,6.0,88,-99.99,,,-99.99,,2013-04-13 07:04:00,
2013-04-13 00:13:00,47.0,43.0,29.78,West,271,6.0,16.0,86,-99.99,,,-99.99,,2013-04-13 07:13:00,
2013-04-13 00:22:00,47.0,43.0,29.78,West,276,7.0,13.0,85,-99.99,,,-99.99,,2013-04-13 07:22:00,
2013-04-13 00:33:00,47.0,43.0,29.78,West,274,5.0,9.0,85,-99.99,,,-99.99,,2013-04-13 07:33:00,
2013-04-13 00:44:00,46.0,42.0,29.78,West,277,12.0,20.0,85,-99.99,,,-99.99,,2013-04-13 07:44:00,
2013-04-13 00:53:00,46.0,43.0,29.79,West,275,12.0,21.0,88,-99.99,,,-99.99,,2013-04-13 07:53:00,
2013-04-13 01:04:00,46.0,42.0,29.80,West,268,14.0,25.0,86,-99.99,,,-99.99,,2013-04-13 08:04:00,
2013-04-13 01:13:00,45.0,41.0,29.81,West,271,10.0,22.0,84,-99.99,,,-99.99,,2013-04-13 08:13:00,
2013-04-13 01:24:00,44.0,39.0,29.82,WNW,289,13.0,28.0,84,-99.99,,,-99.99,,2013-04-13 08:24:00,
2013-04-13 01:33:00,43.0,39.0,29.83,West,279,15.0,27.0,85,-99.99,,,-99.99,,2013-04-13 08:33:00,
2013-04-13 01:44:00,42.0,38.0,29.84,West,281,11.0,23.0,84,-99.99,,,-99.99,,2013-04-13 08:44:00,
2013-04-13 01:53:00,42.0,38.0,29.85,WNW,285,13.0,26.0,85,-99.99,,,-99.99,,2013-04-13 08:53:00,
2013-04-13 02:04:00,42.0,37.0,29.86,WNW,286,14.0,25.0,84,-99.99,,,-99.99,,2013-04-13 09:04:00,
2013-04-13 02:13:00,41.0,38.0,29.86,WNW,292,15.0,26.0,87,-99.99,,,-99.99,,2013-04-13 09:13:00,
2013-04-13 02:23:00,42.0,38.0,29.86,WNW,292,12.0,21.0,85,-99.99,,,-99.99,,2013-04-13 09:23:00,
2013-04-13 02:34:00,42.0,37.0,29.86,WNW,287,9.0,18.0,82,-99.99,,,-99.99,,2013-04-13 09:34:00,
2013-04-13 02:53:00,41.0,37.0,29.86,West,279,4.0,14.0,83,-99.99,,,-99.99,,2013-04-13 09:53:00,
2013-04-13 03:04:00,41.0,35.0,29.86,WNW,298,8.0,20.0,79,-99.99,,,-99.99,,2013-04-13 10:04:00,
2013-04-13 03:14:00,41.0,35.0,29.86,WNW,287,11.0,18.0,78,-99.99,,,-99.99,,2013-04-13 10:14:00,
2013-04-13 03:23:00,41.0,35.0,29.86,WNW,292,11.0,20.0,76,-99.99,,,-99.99,,2013-04-13 10:23:00,
2013-04-13 03:35:00,42.0,35.0,29.87,WNW,284,11.0,20.0,76,-99.99,,,-99.99,,2013-04-13 10:35:00,
2013-04-13 03:45:00,42.0,34.0,29.87,WNW,286,15.0,24.0,72,-99.99,,,-99.99,,2013-04-13 10:45:00,
2013-04-13 03:53:00,41.0,33.0,29.87,WNW,287,14.0,23.0,71,-99.99,,,-99.99,,2013-04-13 10:53:00,
2013-04-13 04:05:00,41.0,34.0,29.87,West,279,10.0,18.0,73,-99.99,,,-99.99,,2013-04-13 11:05:00,
2013-04-13 04:13:00,41.0,34.0,29.87,West,271,13.0,24.0,74,-99.99,,,-99.99,,2013-04-13 11:13:00,
2013-04-13 04:23:00,41.0,34.0,29.87,West,274,17.0,29.0,76,-99.99,,,-99.99,,2013-04-13 11:23:00,
2013-04-13 04:33:00,41.0,34.0,29.88,West,273,12.0,22.0,77,-99.99,,,-99.99,,2013-04-13 11:33:00,
2013-04-13 04:44:00,41.0,36.0,29.88,West,274,12.0,23.0,81,-99.99,,,-99.99,,2013-04-13 11:44:00,
2013-04-13 04:53:00,41.0,36.0,29.88,West,274,11.0,23.0,82,-99.99,,,-99.99,,2013-04-13 11:53:00,
2013-04-13 05:05:00,40.0,36.0,29.89,WNW,287,17.0,29.0,87,-99.99,,,-99.99,,2013-04-13 12:05:00,
2013-04-13 05:14:00,39.0,37.0,29.89,West,277,15.0,29.0,92,-99.99,,,-99.99,,2013-04-13 12:14:00,
2013-04-13 05:23:00,39.0,38.0,29.90,West,281,18.0,31.0,96,-99.99,,,-99.99,,2013-04-13 12:23:00,
2013-04-13 05:34:00,38.0,38.0,29.91,West,276,16.0,27.0,99,-99.99,,,-99.99,,2013-04-13 12:34:00,
2013-04-13 05:45:00,38.0,38.0,29.91,WNW,284,12.0,22.0,100,-99.99,,,-99.99,,2013-04-13 12:45:00,
2013-04-13 05:53:00,38.0,37.0,29.91,West,273,10.0,20.0,97,-99.99,,,-99.99,,2013-04-13 12:53:00,
2013-04-13 06:04:00,38.0,37.0,29.91,West,273,10.0,20.0,97,-99.99,,,-99.99,,2013-04-13 13:04:00,
2013-04-13 06:14:00,38.0,37.0,29.91,West,277,13.0,23.0,97,-99.99,,,-99.99,,2013-04-13 13:14:00,
2013-04-13 06:33:00,38.0,36.0,29.92,WNW,286,12.0,27.0,92,-99.99,,,-99.99,,2013-04-13 13:33:00,
2013-04-13 06:45:00,38.0,35.0,29.93,WNW,292,13.0,23.0,87,-99.99,,,-99.99,,2013-04-13 13:45:00,
2013-04-13 06:53:00,38.0,35.0,29.92,WNW,289,9.0,14.0,87,-99.99,,,-99.99,,2013-04-13 13:53:00,
2013-04-13 07:03:00,38.0,35.0,29.92,WNW,289,9.0,14.0,87,-99.99,,,-99.99,,2013-04-13 14:03:00,
2013-04-13 07:13:00,38.0,32.0,29.93,West,274,11.0,18.0,78,-99.99,,,-99.99,,2013-04-13 14:13:00,
2013-04-13 07:23:00,39.0,32.0,29.93,West,266,9.0,16.0,78,-99.99,,,-99.99,,2013-04-13 14:23:00,
2013-04-13 07:35:00,39.0,32.0,29.94,West,271,11.0,20.0,75,-99.99,,,-99.99,,2013-04-13 14:35:00,
2013-04-13 07:44:00,39.0,32.0,29.95,West,271,8.0,15.0,75,-99.99,,,-99.99,,2013-04-13 14:44:00,
2013-04-13 07:54:00,38.0,34.0,29.96,West,274,10.0,24.0,83,-99.99,,,-99.99,,2013-04-13 14:54:00,
2013-04-13 08:03:00,38.0,34.0,29.97,West,272,9.0,15.0,83,-99.99,,,-99.99,,2013-04-13 15:03:00,
2013-04-13 08:13:00,39.0,33.0,29.97,West,276,12.0,19.0,80,-99.99,,,-99.99,,2013-04-13 15:13:00,
2013-04-13 08:25:00,39.0,33.0,29.97,WNW,284,11.0,28.0,79,-99.99,,,-99.99,,2013-04-13 15:25:00,
2013-04-13 08:34:00,39.0,33.0,29.97,West,277,11.0,21.0,78,-99.99,,,-99.99,,2013-04-13 15:34:00,
2013-04-13 08:43:00,40.0,32.0,29.98,West,269,13.0,21.0,75,-99.99,,,-99.99,,2013-04-13 15:43:00,
2013-04-13 08:54:00,40.0,32.0,29.98,West,268,11.0,18.0,74,-99.99,,,-99.99,,2013-04-13 15:54:00,
2013-04-13 09:13:00,40.0,31.0,29.99,West,274,11.0,22.0,70,-99.99,,,-99.99,,2013-04-13 16:13:00,
2013-04-13 09:24:00,40.0,31.0,29.99,West,269,15.0,25.0,69,-99.99,,,-99.99,,2013-04-13 16:24:00,
2013-04-13 09:34:00,41.0,32.0,29.98,West,267,14.0,25.0,69,-99.99,,,-99.99,,2013-04-13 16:34:00,
2013-04-13 09:44:00,41.0,32.0,29.99,West,266,14.0,23.0,68,-99.99,,,-99.99,,2013-04-13 16:44:00,
2013-04-13 09:53:00,42.0,31.0,29.99,West,265,12.0,25.0,66,-99.99,,,-99.99,,2013-04-13 16:53:00,
2013-04-13 10:05:00,42.0,31.0,29.99,West,265,12.0,25.0,66,-99.99,,,-99.99,,2013-04-13 17:05:00,
2013-04-13 10:17:00,42.0,32.0,29.99,West,274,16.0,30.0,66,-99.99,,,-99.99,,2013-04-13 17:17:00,
2013-04-13 10:35:00,42.0,32.0,30.00,West,267,13.0,23.0,65,-99.99,,,-99.99,,2013-04-13 17:35:00,
2013-04-13 10:43:00,43.0,33.0,30.00,West,271,14.0,23.0,68,-99.99,,,-99.99,,2013-04-13 17:43:00,
2013-04-13 11:04:00,43.0,34.0,30.00,West,274,12.0,19.0,69,-99.99,,,-99.99,,2013-04-13 18:04:00,
2013-04-13 11:14:00,44.0,34.0,30.00,West,270,13.0,24.0,68,-99.99,,,-99.99,,2013-04-13 18:14:00,
2013-04-13 11:23:00,44.0,34.0,30.00,West,276,9.0,16.0,67,-99.99,,,-99.99,,2013-04-13 18:23:00,
2013-04-13 11:32:00,45.0,33.0,30.00,West,271,14.0,27.0,62,-99.99,,,-99.99,,2013-04-13 18:32:00,
2013-04-13 11:42:00,45.0,32.0,30.00,West,280,14.0,24.0,59,-99.99,,,-99.99,,2013-04-13 18:42:00,
2013-04-13 11:52:00,46.0,31.0,30.00,West,270,16.0,29.0,56,-99.99,,,-99.99,,2013-04-13 18:52:00,
2013-04-13 12:02:00,46.0,31.0,30.00,West,270,17.0,28.0,55,-99.99,,,-99.99,,2013-04-13 19:02:00,
2013-04-13 12:12:00,46.0,32.0,30.00,WNW,283,14.0,25.0,57,-99.99,,,-99.99,,2013-04-13 19:12:00,
2013-04-13 12:22:00,47.0,32.0,30.00,West,273,13.0,24.0,57,-99.99,,,-99.99,,2013-04-13 19:22:00,
2013-04-13 12:32:00,47.0,32.0,30.00,WNW,282,14.0,26.0,55,-99.99,,,-99.99,,2013-04-13 19:32:00,
2013-04-13 12:42:00,47.0,31.0,30.00,West,276,11.0,22.0,55,-99.99,,,-99.99,,2013-04-13 19:42:00,
2013-04-13 12:52:00,47.0,31.0,30.00,WSW,256,10.0,18.0,53,-99.99,,,-99.99,,2013-04-13 19:52:00,
2013-04-13 13:02:00,48.0,32.0,30.00,West,281,10.0,20.0,52,-99.99,,,-99.99,,2013-04-13 20:02:00,
2013-04-13 13:12:00,49.0,32.0,30.00,WNW,284,9.0,17.0,50,-99.99,,,-99.99,,2013-04-13 20:12:00,
2013-04-13 13:22:00,49.0,32.0,30.00,West,272,10.0,20.0,52,-99.99,,,-99.99,,2013-04-13 20:22:00,
2013-04-13 13:32:00,48.0,32.0,29.99,WNW,287,14.0,22.0,54,-99.99,,,-99.99,,2013-04-13 20:32:00,
2013-04-13 13:42:00,46.0,33.0,29.99,West,278,13.0,22.0,60,-99.99,,,-99.99,,2013-04-13 20:42:00,
2013-04-13 13:52:00,47.0,33.0,29.99,West,281,10.0,21.0,56,-99.99,,,-99.99,,2013-04-13 20:52:00,
2013-04-13 14:02:00,49.0,33.0,29.99,West,275,11.0,19.0,54,-99.99,,,-99.99,,2013-04-13 21:02:00,
2013-04-13 14:12:00,49.0,33.0,29.99,WNW,283,13.0,21.0,52,-99.99,,,-99.99,,2013-04-13 21:12:00,
2013-04-13 14:22:00,50.0,32.0,29.99,WNW,286,12.0,22.0,50,-99.99,,,-99.99,,2013-04-13 21:22:00,
2013-04-13 14:32:00,49.0,33.0,29.99,WNW,286,16.0,28.0,52,-99.99,,,-99.99,,2013-04-13 21:32:00,
2013-04-13 14:43:00,50.0,33.0,30.00,West,272,11.0,25.0,52,-99.99,,,-99.99,,2013-04-13 21:43:00,
2013-04-13 14:52:00,49.0,33.0,29.99,West,279,12.0,22.0,54,-99.99,,,-99.99,,2013-04-13 21:52:00,
2013-04-13 15:02:00,48.0,33.0,29.99,WNW,287,17.0,29.0,55,-99.99,,,-99.99,,2013-04-13 22:02:00,
2013-04-13 15:12:00,48.0,34.0,30.00,WNW,285,15.0,25.0,59,-99.99,,,-99.99,,2013-04-13 22:12:00,
2013-04-13 15:22:00,48.0,35.0,30.00,WNW,291,11.0,21.0,59,-99.99,,,-99.99,,2013-04-13 22:22:00,
2013-04-13 15:32:00,49.0,34.0,29.99,WNW,289,13.0,22.0,55,-99.99,,,-99.99,,2013-04-13 22:32:00,
2013-04-13 15:42:00,49.0,34.0,29.99,WNW,290,14.0,24.0,56,-99.99,,,-99.99,,2013-04-13 22:42:00,
2013-04-13 15:52:00,47.0,37.0,30.00,West,281,15.0,26.0,66,-99.99,,,-99.99,,2013-04-13 22:52:00,
2013-04-13 16:02:00,47.0,37.0,30.00,WNW,285,13.0,23.0,65,-99.99,,,-99.99,,2013-04-13 23:02:00,
2013-04-13 16:12:00,48.0,37.0,30.00,WNW,285,12.0,22.0,64,-99.99,,,-99.99,,2013-04-13 23:12:00,
2013-04-13 16:22:00,48.0,36.0,30.00,West,281,12.0,23.0,64,-99.99,,,-99.99,,2013-04-13 23:22:00,
2013-04-13 16:32:00,48.0,37.0,30.00,WNW,285,12.0,20.0,64,-99.99,,,-99.99,,2013-04-13 23:32:00,
2013-04-13 16:41:00,47.0,36.0,30.00,West,280,13.0,23.0,65,-99.99,,,-99.99,,2013-04-13 23:41:00,
2013-04-13 16:52:00,47.0,38.0,30.00,West,278,11.0,20.0,69,-99.99,,,-99.99,,2013-04-13 23:52:00,
2013-04-13 17:02:00,47.0,37.0,30.00,West,279,10.0,20.0,68,-99.99,,,-99.99,,2013-04-14 00:02:00,
2013-04-13 17:12:00,47.0,36.0,29.99,West,276,12.0,23.0,67,-99.99,,,-99.99,,2013-04-14 00:12:00,
2013-04-13 17:22:00,47.0,37.0,29.99,West,274,12.0,18.0,69,-99.99,,,-99.99,,2013-04-14 00:22:00,
2013-04-13 17:32:00,47.0,37.0,29.99,WNW,284,13.0,21.0,67,-99.99,,,-99.99,,2013-04-14 00:32:00,
2013-04-13 17:42:00,47.0,37.0,29.99,WNW,284,13.0,21.0,67,-99.99,,,-99.99,,2013-04-14 00:42:00,
2013-04-13 17:52:00,45.0,39.0,30.00,West,263,7.0,13.0,77,-99.99,,,-99.99,,2013-04-14 00:52:00,
2013-04-13 18:02:00,45.0,38.0,30.00,West,260,9.0,14.0,74,-99.99,,,-99.99,,2013-04-14 01:02:00,
2013-04-13 18:12:00,45.0,38.0,30.00,West,270,9.0,17.0,74,-99.99,,,-99.99,,2013-04-14 01:12:00,
2013-04-13 18:22:00,45.0,39.0,30.01,WNW,282,12.0,23.0,79,-99.99,,,-99.99,,2013-04-14 01:22:00,
2013-04-13 18:32:00,44.0,40.0,30.01,West,268,7.0,11.0,85,-99.99,,,-99.99,,2013-04-14 01:32:00,
2013-04-13 18:42:00,44.0,40.0,30.00,West,266,10.0,17.0,85,-99.99,,,-99.99,,2013-04-14 01:42:00,
2013-04-13 18:52:00,43.0,40.0,30.00,West,265,8.0,13.0,86,-99.99,,,-99.99,,2013-04-14 01:52:00,
2013-04-13 19:02:00,43.0,39.0,30.01,West,273,8.0,17.0,87,-99.99,,,-99.99,,2013-04-14 02:02:00,
2013-04-13 19:12:00,42.0,40.0,30.01,West,275,9.0,15.0,92,-99.99,,,-99.99,,2013-04-14 02:12:00,
2013-04-13 19:22:00,42.0,41.0,30.01,West,270,8.0,12.0,94,-99.99,,,-99.99,,2013-04-14 02:22:00,
2013-04-13 19:32:00,42.0,39.0,30.00,West,267,8.0,16.0,90,-99.99,,,-99.99,,2013-04-14 02:32:00,
2013-04-13 19:42:00,42.0,40.0,30.00,West,266,8.0,18.0,95,-99.99,,,-99.99,,2013-04-14 02:42:00,
2013-04-13 19:52:00,41.0,40.0,30.01,West,269,16.0,27.0,96,-99.99,,,-99.99,,2013-04-14 02:52:00,
2013-04-13 20:02:00,41.0,41.0,30.00,West,263,9.0,18.0,98,-99.99,,,-99.99,,2013-04-14 03:02:00,
2013-04-13 20:12:00,41.0,41.0,30.01,WSW,251,8.0,15.0,98,-99.99,,,-99.99,,2013-04-14 03:12:00,
2013-04-13 20:22:00,41.0,40.0,30.00,SW,225,3.0,6.0,98,-99.99,,,-99.99,,2013-04-14 03:22:00,
2013-04-13 20:33:00,41.0,40.0,30.00,WSW,237,3.0,8.0,97,-99.99,,,-99.99,,2013-04-14 03:33:00,
2013-04-13 20:42:00,41.0,40.0,30.00,SW,231,4.0,9.0,95,-99.99,,,-99.99,,2013-04-14 03:42:00,
2013-04-13 20:53:00,41.0,40.0,30.00,WSW,244,5.0,10.0,94,-99.99,,,-99.99,,2013-04-14 03:53:00,
2013-04-13 21:02:00,42.0,40.0,30.01,WSW,250,5.0,9.0,94,-99.99,,,-99.99,,2013-04-14 04:02:00,
2013-04-13 21:12:00,42.0,40.0,30.02,West,267,7.0,15.0,93,-99.99,,,-99.99,,2013-04-14 04:12:00,
2013-04-13 21:22:00,41.0,40.0,30.02,West,263,8.0,20.0,95,-99.99,,,-99.99,,2013-04-14 04:22:00,
2013-04-13 21:32:00,41.0,40.0,30.02,West,279,13.0,26.0,96,-99.99,,,-99.99,,2013-04-14 04:32:00,
2013-04-13 21:42:00,41.0,41.0,30.02,West,269,10.0,19.0,97,-99.99,,,-99.99,,2013-04-14 04:42:00,
2013-04-13 21:52:00,41.0,40.0,30.02,WSW,256,8.0,15.0,94,-99.99,,,-99.99,,2013-04-14 04:52:00,
2013-04-13 22:02:00,41.0,40.0,30.02,West,260,5.0,10.0,92,-99.99,,,-99.99,,2013-04-14 05:02:00,
2013-04-13 22:12:00,41.0,39.0,30.02,WSW,249,6.0,13.0,92,-99.99,,,-99.99,,2013-04-14 05:12:00,
2013-04-13 22:22:00,41.0,39.0,30.02,SSW,211,3.0,6.0,92,-99.99,,,-99.99,,2013-04-14 05:22:00,
2013-04-13 22:32:00,41.0,40.0,30.02,SSE,152,2.0,6.0,94,-99.99,,,-99.99,,2013-04-14 05:32:00,
2013-04-13 22:42:00,41.0,40.0,30.03,SSW,194,3.0,8.0,93,-99.99,,,-99.99,,2013-04-14 05:42:00,
2013-04-13 22:52:00,42.0,39.0,30.03,West,269,2.0,5.0,91,-99.99,,,-99.99,,2013-04-14 05:52:00,
2013-04-13 23:02:00,42.0,38.0,30.03,West,268,8.0,16.0,85,-99.99,,,-99.99,,2013-04-14 06:02:00,
2013-04-13 23:12:00,42.0,39.0,30.03,West,269,5.0,9.0,89,-99.99,,,-99.99,,2013-04-14 06:12:00,
2013-04-13 23:22:00,42.0,38.0,30.03,West,261,6.0,10.0,85,-99.99,,,-99.99,,2013-04-14 06:22:00,
2013-04-13 23:32:00,42.0,36.0,30.02,WNW,301,6.0,12.0,79,-99.99,,,-99.99,,2013-04-14 06:32:00,
2013-04-13 23:42:00,42.0,36.0,30.02,WNW,283,7.0,12.0,80,-99.99,,,-99.99,,2013-04-14 06:42:00,
2013-04-13 23:52:00,42.0,36.0,30.02,West,278,8.0,14.0,80,-99.99,,,-99.99,,2013-04-14 06:52:00,